Daviess Cnty AP, Washington,, IN

5:00 AM EDT on September 15, 2019 (GMT -0400)
Daviess County

Weather History for KDCY - May, 2019

Change the Weather History Date:

Saturday, May 25, 2019

  Actual Average (WUND) Record (WUND)
Temperature  
Mean Temperature 80 °F -  
Max Temperature 87 °F - - (-1)
Min Temperature 72 °F - - (-1)
Cooling Degree Days 14    
Growing Degree Days 30 (Base 50)    
Moisture  
Dew Point 67 °F    
Average Humidity 69    
Maximum Humidity 95    
Minimum Humidity 50    
Precipitation  
Precipitation 0.07 in - - ()
Sea Level Pressure  
Sea Level Pressure 30.03 in    
Wind  
Wind Speed 10 mph (SW)    
Max Wind Speed 24 mph    
Max Gust Speed 36 mph    
Visibility 10 miles    
Events Rain , Thunderstorm    
Averages and records for this station are not official NWS values.
T = Trace of Precipitation, MM = Missing Value Source: NWS Daily Summary

Daily Weather History Graph

Daily Weather History Graph

Search for Another Location

Airport or City:

Astronomy

May. 25, 2019 Rise Set
Actual Time 6:29 AM EDT 9:02 PM EDT
Civil Twilight 5:58 AM EDT 9:32 PM EDT
Nautical Twilight 5:20 AM EDT 10:11 PM EDT
Astronomical Twilight 4:37 AM EDT 10:53 PM EDT
Moon 2:03 AM EDT (5/25) 12:27 PM EDT (5/25)
Length of Visible Light 15h 34m
Length of Day
14h 32m
Waning Gibbous, 60% of the Moon is Illuminated
May 25
Waning Gibbous
May 26
Last Quarter
Jun 3
New
Jun 10
First Quarter
Jun 17
Full

Hourly Weather History & Observations

Time (EDT) Temp. Heat Index Dew Point Humidity Pressure Visibility Wind Dir Wind Speed Gust Speed Precip Events Conditions
12:15 AM 76.1 °F - 64.8 °F 68% 30.03 in 10.0 mi SSW 9.2 mph - N/A   Clear
12:35 AM 75.9 °F - 64.4 °F 67% 30.03 in 10.0 mi SSW 8.1 mph - N/A   Clear
12:55 AM 76.3 °F - 64.0 °F 66% 30.03 in 10.0 mi SSW 9.2 mph - N/A   Clear
1:15 AM 76.1 °F - 63.9 °F 66% 30.04 in 10.0 mi SSW 10.4 mph - N/A   Clear
1:35 AM 76.1 °F - 63.9 °F 66% 30.04 in 10.0 mi SSW 10.4 mph - N/A   Clear
1:55 AM 76.5 °F - 64.0 °F 65% 30.04 in 10.0 mi SSW 10.4 mph - N/A   Clear
2:15 AM 76.3 °F - 64.4 °F 67% 30.03 in 10.0 mi SW 10.4 mph 16.1 mph N/A   Clear
2:35 AM 75.7 °F - 64.6 °F 68% 30.03 in 10.0 mi SW 10.4 mph - N/A   Clear
2:55 AM 75.6 °F - 64.9 °F 69% 30.03 in 10.0 mi SW 10.4 mph - N/A   Clear
3:15 AM 75.2 °F - 65.3 °F 71% 30.03 in 10.0 mi SW 9.2 mph - N/A   Clear
3:35 AM 75.2 °F - 65.3 °F 71% 30.02 in 10.0 mi SW 11.5 mph - N/A   Clear
3:55 AM 74.8 °F - 65.5 °F 73% 30.02 in 10.0 mi SW 10.4 mph 16.1 mph N/A   Clear
4:15 AM 74.7 °F - 65.8 °F 74% 30.01 in 10.0 mi SW 9.2 mph - N/A   Clear
4:35 AM 75.0 °F - 66.2 °F 74% 30.01 in 10.0 mi SSW 8.1 mph - N/A   Clear
4:55 AM 74.5 °F - 66.2 °F 75% 30.01 in 10.0 mi SW 8.1 mph - N/A   Clear
5:35 AM 74.5 °F - 66.6 °F 76% 30.01 in 10.0 mi SSW 8.1 mph - N/A   Clear
5:55 AM 73.4 °F - 66.6 °F 79% 30.01 in 10.0 mi SSW 6.9 mph - N/A   Clear
6:15 AM 73.0 °F - 67.1 °F 82% 30.01 in 10.0 mi South 8.1 mph - N/A   Clear
6:35 AM 72.7 °F - 67.3 °F 83% 30.02 in 10.0 mi SW 6.9 mph - N/A   Scattered Clouds
6:55 AM 73.4 °F - 67.5 °F 82% 30.03 in 10.0 mi SSW 8.1 mph - N/A   Clear
7:15 AM 73.6 °F - 68.0 °F 83% 30.04 in 10.0 mi SSW 9.2 mph - N/A   Clear
7:35 AM 73.6 °F - 68.0 °F 83% 30.04 in 10.0 mi SSW 9.2 mph - N/A   Clear
7:55 AM 73.9 °F - 68.2 °F 82% 30.05 in 10.0 mi SSW 9.2 mph - N/A   Clear
8:10 AM 74.7 °F - 68.2 °F 80% 30.05 in 10.0 mi SSW 9.2 mph - N/A   Clear
8:35 AM 75.4 °F - 68.7 °F 80% 30.06 in 10.0 mi SW 9.2 mph - N/A   Clear
8:55 AM 75.9 °F - 68.5 °F 78% 30.06 in 10.0 mi SW 9.2 mph - N/A   Clear
9:10 AM 76.3 °F - 68.5 °F 77% 30.06 in 10.0 mi SW 8.1 mph - N/A   Clear
9:35 AM 78.6 °F - 68.7 °F 72% 30.05 in 10.0 mi SSW 9.2 mph - N/A   Clear
9:55 AM 79.3 °F - 68.5 °F 69% 30.04 in 10.0 mi SSW 9.2 mph - N/A   Clear
10:15 AM 80.6 °F 83.4 °F 68.4 °F 66% 30.03 in 10.0 mi SSW 10.4 mph 16.1 mph N/A   Clear
10:35 AM 81.0 °F 83.4 °F 67.3 °F 63% 30.03 in 10.0 mi SSW 9.2 mph - N/A   Clear
10:55 AM 83.3 °F 86.2 °F 67.5 °F 59% 30.03 in 10.0 mi SW 11.5 mph 18.4 mph N/A   Clear
11:15 AM 82.8 °F 85.3 °F 66.9 °F 59% 30.05 in 10.0 mi SW 12.7 mph - N/A   Clear
11:40 AM 82.9 °F 85.6 °F 67.1 °F 59% 30.05 in 10.0 mi WSW 11.5 mph 16.1 mph N/A   Clear
11:55 AM 83.8 °F 85.8 °F 65.5 °F 54% 30.05 in 10.0 mi SW 16.1 mph 21.9 mph N/A   Clear
12:15 PM 84.6 °F 86.8 °F 66.0 °F 54% 30.06 in 10.0 mi SW 15.0 mph 21.9 mph N/A   Clear
12:35 PM 84.7 °F 86.8 °F 66.0 °F 53% 30.06 in 10.0 mi SW 13.8 mph 19.6 mph N/A   Clear
12:55 PM 84.7 °F 86.1 °F 64.4 °F 50% 30.05 in 10.0 mi SW 17.3 mph 27.6 mph N/A   Clear
1:15 PM 85.8 °F 87.6 °F 65.1 °F 50% 30.05 in 10.0 mi SW 18.4 mph 25.3 mph N/A   Clear
1:35 PM 85.6 °F 87.6 °F 65.5 °F 51% 30.05 in 10.0 mi SW 15.0 mph 25.3 mph N/A   Clear
1:55 PM 86.5 °F 88.7 °F 66.0 °F 50% 30.04 in 10.0 mi SW 13.8 mph 23.0 mph N/A   Clear
2:15 PM 86.9 °F 89.6 °F 66.7 °F 51% 30.04 in 10.0 mi WSW 15.0 mph 19.6 mph N/A   Scattered Clouds
2:35 PM 86.0 °F 87.9 °F 65.3 °F 50% 30.04 in 10.0 mi WSW 20.7 mph 26.5 mph N/A   Mostly Cloudy
2:55 PM 86.4 °F 88.4 °F 65.7 °F 50% 30.03 in 10.0 mi SW 16.1 mph 25.3 mph N/A   Mostly Cloudy
3:15 PM 87.4 °F 90.1 °F 66.7 °F 50% 30.03 in 10.0 mi WSW 12.7 mph 23.0 mph N/A   Mostly Cloudy
3:35 PM 86.5 °F 89.3 °F 67.1 °F 52% 30.03 in 10.0 mi WSW 11.5 mph 23.0 mph N/A   Mostly Cloudy
3:55 PM 86.7 °F 89.3 °F 66.7 °F 51% 30.03 in 10.0 mi WSW 11.5 mph 19.6 mph N/A   Mostly Cloudy
4:15 PM 86.9 °F 89.6 °F 66.9 °F 51% 30.02 in 10.0 mi WSW 13.8 mph 18.4 mph N/A   Mostly Cloudy
4:35 PM 85.8 °F 88.2 °F 66.6 °F 52% 30.03 in 10.0 mi WSW 11.5 mph 21.9 mph N/A   Mostly Cloudy
4:55 PM 86.5 °F 89.3 °F 66.9 °F 52% 30.02 in 10.0 mi SW 13.8 mph 21.9 mph N/A   Mostly Cloudy
5:15 PM 85.5 °F 87.6 °F 66.0 °F 52% 30.02 in 10.0 mi SW 8.1 mph 18.4 mph N/A   Scattered Clouds
5:35 PM 83.8 °F 85.8 °F 65.7 °F 54% 30.02 in 10.0 mi WSW 9.2 mph 18.4 mph N/A   Scattered Clouds
5:55 PM 76.8 °F - 68.5 °F 75% 30.07 in 4.0 mi West 24.2 mph 35.7 mph 0.03 in Rain , Thunderstorm Heavy Thunderstorms and Rain
6:15 PM 77.2 °F - 70.0 °F 78% 30.05 in 5.0 mi SSW 5.8 mph 29.9 mph 0.04 in Rain , Thunderstorm Light Thunderstorms and Rain
6:35 PM 79.0 °F - 70.5 °F 75% 30.05 in 10.0 mi SW 3.5 mph - 0.04 in   Mostly Cloudy
6:55 PM 81.0 °F 84.7 °F 70.7 °F 71% 30.04 in 10.0 mi WSW 4.6 mph - 0.04 in   Scattered Clouds
7:15 PM 80.8 °F 84.6 °F 71.1 °F 72% 30.04 in 10.0 mi SW 6.9 mph - N/A   Clear
7:35 PM 80.6 °F 84.7 °F 72.0 °F 75% 30.03 in 10.0 mi SW 5.8 mph - N/A   Clear
7:55 PM 80.2 °F 84.0 °F 71.8 °F 75% 30.03 in 10.0 mi SSW 5.8 mph - N/A   Clear
8:15 PM 79.2 °F - 72.0 °F 78% 30.03 in 10.0 mi SSW 3.5 mph - N/A   Clear
8:35 PM 78.6 °F - 71.8 °F 79% 30.03 in 10.0 mi SSW 5.8 mph - N/A   Clear
8:55 PM 78.4 °F - 70.0 °F 75% 30.02 in 10.0 mi SSW 5.8 mph - N/A   Clear
9:15 PM 77.0 °F - 70.0 °F 79% 30.02 in 10.0 mi SSW 6.9 mph - N/A   Clear
9:35 PM 75.9 °F - 70.0 °F 82% 30.02 in 10.0 mi SSW 5.8 mph - N/A   Clear
9:55 PM 75.4 °F - 69.3 °F 81% 30.02 in 10.0 mi SSW 5.8 mph - N/A   Clear
10:15 PM 75.2 °F - 69.1 °F 81% 30.03 in 10.0 mi SSW 6.9 mph - N/A   Clear
10:35 PM 75.4 °F - 68.4 °F 79% 30.03 in 10.0 mi SSW 6.9 mph - N/A   Clear
10:55 PM 74.7 °F - 68.9 °F 82% 30.03 in 10.0 mi SSW 5.8 mph - N/A   Clear
11:15 PM 72.9 °F - 70.2 °F 91% 30.03 in 10.0 mi South 5.8 mph - N/A   Clear
11:35 PM 72.5 °F - 71.1 °F 95% 30.03 in 10.0 mi South 4.6 mph - N/A   Clear
11:55 PM 73.9 °F - 69.8 °F 87% 30.04 in 10.0 mi SSW 8.1 mph - N/A   Clear